Wind_Speed
30 29 28 26 24 20 22 24 23 22 20 17 15 14 14 15 13 12 16 19 17 16 14 13 13 15 14 13 14 15 16 17 16 16 16 16 16 16 15 14 14 14 12
28 31 29 29 26 24 23 24 24 23 21 18 16 16 18 18 13 17 15 21 19 16 15 14 14 15 14 14 15 16 17 17 17 17 16 16 16 16 15 14 13 12 11
27 30 30 30 29 26 24 24 24 20 19 18 17 17 17 17 16 13 20 20 19 17 16 15 13 17 14 16 15 16 16 18 17 17 17 16 15 14 15 13 12 10 9
31 30 32 32 31 29 28 27 26 22 22 21 19 18 17 15 16 16 18 21 22 19 17 17 16 16 15 16 17 17 17 18 18 18 17 16 15 14 13 12 10 9 8
31 30 31 32 32 32 31 27 24 25 25 23 21 18 17 16 16 17 18 21 23 21 21 21 18 17 17 17 18 18 18 19 18 17 16 16 14 14 12 11 10 8 7
32 31 31 30 30 31 31 29 26 26 28 25 21 17 17 17 18 19 20 21 24 23 23 23 21 19 19 19 18 19 19 20 19 18 16 16 14 14 12 11 10 9 7
34 34 34 31 33 32 32 32 29 25 20 24 16 11 11 15 18 21 21 23 24 23 23 23 24 24 21 19 19 21 20 20 19 18 17 16 15 14 12 11 10 9 7
35 32 36 34 34 31 32 34 32 21 18 28 11 11 3 3 16 21 23 25 27 26 26 26 26 27 25 23 23 21 22 21 20 18 17 17 15 14 13 12 11 8 6
30 31 36 34 34 33 31 34 35 31 24 28 26 10 3 4 3 13 23 25 28 30 29 29 29 28 28 27 24 23 24 22 20 19 18 18 16 15 14 13 10 6 7
30 32 35 35 34 34 32 32 36 34 29 25 28 28 11 15 3 2 12 25 27 32 34 32 32 32 30 29 29 27 27 24 22 21 21 19 17 17 15 11 9 10 8
29 30 32 33 34 34 34 31 34 33 35 26 31 27 21 17 12 4 3 8 24 30 32 35 35 36 34 32 32 29 30 27 25 22 21 19 19 17 15 12 13 10 9
21 29 31 31 33 33 34 34 36 37 32 32 31 26 30 17 11 7 2 9 16 19 29 31 35 37 37 36 35 32 31 30 27 26 23 21 20 19 16 16 13 10 12
14 19 23 28 31 33 33 34 35 37 36 33 31 31 30 32 24 25 19 5 4 7 14 31 37 38 38 40 38 35 32 31 31 29 26 25 23 19 19 16 14 15 15
14 17 17 23 30 32 34 35 35 36 37 36 34 33 30 30 29 27 26 13 3 6 9 14 36 38 39 41 40 37 34 32 31 31 28 23 22 22 19 19 20 20 19
10 12 15 17 22 30 31 35 34 34 34 35 34 36 33 29 31 30 30 27 19 6 9 15 17 39 40 38 37 37 35 34 33 32 31 29 26 23 22 23 25 24 20
10 11 13 16 19 23 29 34 34 34 33 33 33 31 34 27 30 33 33 31 28 22 8 17 24 26 39 36 35 35 35 34 33 34 33 31 29 28 28 30 30 25 17
8 10 12 14 18 22 26 30 31 31 35 33 34 34 32 30 27 27 31 32 28 27 14 7 22 25 31 36 34 33 33 33 32 34 35 34 33 31 34 35 31 26 20
13 11 12 15 17 21 25 30 31 31 34 31 32 31 31 31 29 27 28 29 30 31 29 11 19 25 26 38 35 33 33 33 38 38 36 36 35 35 37 33 27 23 18
16 14 11 14 15 21 27 31 31 32 34 33 31 32 31 30 27 27 27 27 30 32 32 22 14 25 22 35 38 33 34 36 36 39 38 37 35 34 32 28 25 21 18
16 16 14 15 17 19 21 29 30 32 33 34 34 32 31 31 29 29 28 27 24 25 22 24 19 24 24 30 36 41 30 32 34 31 31 30 29 28 26 24 20 18 17
19 19 20 17 16 17 23 25 31 30 30 30 30 33 34 33 33 33 29 26 27 26 24 25 20 17 19 26 32 27 29 32 29 31 31 28 27 26 22 21 19 18 18
20 22 21 21 20 20 17 26 30 30 31 31 31 31 31 31 30 29 30 29 30 28 27 26 24 28 29 33 29 38 36 26 9 27 30 26 26 25 23 21 19 17 15
22 22 23 23 23 21 21 22 30 35 32 34 34 31 32 32 29 30 30 29 31 31 39 45 35 34 32 46 41 36 38 35 17 36 34 19 27 25 22 19 18 17 13
24 24 24 24 25 25 22 22 29 38 33 33 35 30 31 30 28 29 31 31 28 31 42 44 43 46 53 56 62 57 47 30 18 35 31 9 27 21 22 18 16 13 12
26 25 24 25 26 27 24 22 22 30 32 29 27 28 31 31 28 25 29 31 28 27 37 46 43 40 45 50 51 41 38 33 11 19 32 15 23 21 20 19 17 14 12
26 26 24 24 24 25 23 23 20 21 33 32 30 30 33 29 27 25 27 27 26 27 30 39 36 22 32 39 49 55 54 40 23 8 26 16 32 19 9 18 19 16 14
Wind_Direction
206 206 207 205 205 205 199 193 191 194 198 200 206 202 194 191 198 214 221 195 192 189 180 185 185 181 178 176 176 172 169 166 166 163 161 159 156 155 154 151 144 140 134
209 211 210 211 210 209 206 204 203 199 203 206 210 210 205 201 209 219 219 208 197 193 189 181 182 182 183 181 185 180 176 169 171 171 168 166 166 165 161 154 147 145 139
216 220 216 215 216 212 211 209 212 208 205 207 214 210 208 205 208 221 223 217 203 198 191 193 188 189 193 188 187 187 180 179 177 176 173 175 175 173 160 158 155 150 143
214 218 221 221 219 216 214 215 216 211 208 210 206 201 203 207 210 212 234 216 209 204 194 205 194 191 196 187 193 191 186 182 178 182 183 185 183 179 168 163 162 158 148
211 215 220 223 223 219 218 216 215 214 207 208 210 211 208 212 212 215 226 220 211 202 203 204 200 200 201 196 193 193 192 191 188 190 185 186 183 187 176 172 172 168 157
210 216 221 223 220 217 219 214 212 217 212 209 208 210 216 220 221 226 218 229 211 208 209 206 201 203 206 199 204 199 195 193 194 189 188 188 190 191 184 184 181 173 165
210 211 220 223 218 212 214 215 210 206 197 206 184 195 205 220 225 220 217 219 216 215 213 212 208 205 203 206 202 201 197 196 193 192 193 194 200 196 190 191 184 179 181
211 211 215 218 215 215 215 212 203 189 194 199 174 143 162 189 219 219 221 221 223 218 216 214 212 209 205 205 206 205 204 199 197 191 193 203 204 200 195 190 189 195 211
213 215 213 214 215 215 215 207 205 195 187 194 197 158 161 199 154 212 221 223 223 221 219 218 215 216 211 210 209 207 206 203 200 198 201 212 209 203 196 192 202 212 252
224 219 217 216 221 220 215 210 210 206 196 188 196 207 191 155 170 167 210 219 224 224 222 219 219 218 217 214 212 213 207 205 204 205 209 221 209 199 196 200 220 227 234
231 228 227 221 218 221 223 216 213 213 205 195 193 196 200 188 176 140 182 182 216 223 222 223 223 220 219 218 216 213 208 205 207 210 216 219 204 201 201 218 217 229 221
236 233 232 223 224 218 220 220 221 215 208 206 199 201 198 190 186 174 147 188 204 215 213 220 224 225 222 220 219 216 212 210 210 211 214 213 210 211 218 213 222 211 224
231 236 231 228 224 223 219 219 216 212 212 209 201 204 205 207 209 205 207 160 169 176 195 216 223 227 226 224 222 220 216 213 211 214 220 220 220 211 213 219 196 197 195
258 266 257 239 235 230 223 218 212 212 213 213 210 208 208 211 209 204 202 177 154 181 182 192 215 225 227 226 224 222 218 216 214 214 221 220 217 216 212 198 201 190 181
266 272 258 249 242 237 232 221 214 216 215 216 211 208 210 214 214 212 207 207 198 189 205 196 191 215 221 223 223 223 219 217 216 215 217 220 220 219 209 207 201 193 194
263 282 267 254 251 243 232 223 215 217 214 214 211 209 211 211 217 220 217 218 216 217 212 193 204 205 214 217 218 219 217 216 216 217 216 216 216 212 206 200 193 192 174
292 277 285 277 255 238 227 216 214 212 209 210 208 207 216 212 211 217 221 220 216 215 214 186 198 203 198 209 209 211 211 210 209 215 213 212 211 208 205 201 199 201 199
330 299 284 284 267 250 236 224 216 213 210 207 207 209 215 217 225 219 212 212 214 214 218 163 179 181 193 198 200 197 194 195 192 195 206 207 208 208 204 195 193 192 185
327 328 288 290 282 258 245 235 224 216 214 211 212 210 215 215 216 215 216 216 218 217 214 185 163 181 170 180 174 174 175 173 175 180 187 188 184 183 185 187 190 188 180
333 327 313 284 277 281 262 236 224 219 219 217 218 220 218 214 214 216 219 220 226 212 198 188 188 171 167 169 170 162 155 166 167 173 174 173 171 174 180 183 184 172 167
337 323 324 309 292 288 260 254 235 221 218 217 220 223 225 227 232 225 227 233 234 222 184 172 166 164 163 165 168 167 153 158 164 175 172 170 171 174 179 179 170 169 166
337 333 324 323 312 294 290 253 243 229 220 218 217 223 227 228 237 243 241 239 237 206 182 180 175 179 181 183 174 165 154 153 163 184 168 162 177 174 178 175 172 170 167
333 327 325 323 319 306 286 280 257 235 223 219 220 228 232 233 236 241 239 239 242 229 217 198 188 189 181 186 179 171 174 172 172 174 170 153 177 173 177 171 168 165 157
328 322 321 323 319 311 313 292 266 245 229 229 226 229 233 234 233 236 240 243 244 233 217 214 212 205 207 194 194 187 176 160 158 161 168 135 171 170 175 175 168 163 167
321 318 319 320 316 315 316 305 290 251 222 216 225 231 233 236 232 233 241 240 237 230 219 217 215 219 211 208 186 170 158 158 134 172 181 144 166 152 169 175 174 171 174
312 315 317 321 320 318 318 312 299 260 227 205 216 218 224 225 228 230 235 234 226 226 217 214 214 218 208 193 185 192 176 169 147 141 189 146 153 148 151 186 179 176 179
Height
786 791 794 797 799 803 804 807 811 814 816 818 820 823 824 826 828 832 835 836 839 840 843 845 847 850 854 856 857 860 861 862 866 868 870 872 873 874 875 876 877 878 880
783 787 791 795 797 800 803 806 809 812 814 816 818 820 822 824 826 829 832 836 837 840 843 845 847 850 853 856 858 860 862 863 865 868 870 872 873 874 875 876 877 879 880
779 784 788 792 796 798 801 803 807 810 812 815 817 818 821 823 825 828 831 835 836 840 841 844 846 849 852 855 857 861 862 863 864 867 869 872 874 875 874 876 878 879 880
774 779 784 788 792 797 798 801 803 807 809 812 814 817 819 821 824 826 829 832 835 838 840 843 845 847 851 854 857 860 862 863 864 866 869 871 874 875 875 876 878 879 881
771 773 778 783 787 792 794 797 800 803 805 809 812 815 817 819 822 824 827 829 832 835 839 841 844 847 849 852 856 859 861 862 864 865 867 870 872 874 875 876 878 880 881
766 769 773 777 783 787 790 792 796 800 801 806 810 813 815 817 819 821 824 827 830 833 836 839 842 845 848 850 854 857 860 862 862 864 866 869 871 873 874 876 877 879 881
757 762 766 771 776 778 783 787 791 796 800 802 808 812 813 816 817 818 820 824 827 830 834 837 840 843 846 848 852 855 858 860 861 862 865 868 871 872 873 875 877 878 880
747 751 759 762 768 773 778 780 783 789 792 796 803 808 812 815 814 815 817 820 823 826 830 834 837 841 843 845 849 853 855 858 859 861 863 867 869 870 872 874 876 878 879
742 745 751 755 759 765 770 772 775 779 783 789 794 799 807 808 811 812 813 815 818 822 826 830 834 838 840 842 846 850 853 855 856 859 861 864 867 868 870 872 874 876 877
739 742 746 750 752 756 762 766 769 773 776 778 788 790 791 793 803 810 810 810 813 817 820 824 828 832 836 839 842 846 849 852 854 856 859 862 864 866 868 870 873 874 875
736 739 741 743 746 749 754 758 762 767 769 772 774 782 786 789 791 797 802 805 809 810 814 817 821 826 830 834 838 842 845 848 850 854 856 859 861 863 865 868 870 871 873
730 733 736 738 739 742 746 751 755 759 762 765 767 772 775 780 784 788 794 798 799 804 807 811 816 820 824 828 832 836 840 843 847 850 853 856 858 860 862 865 867 869 871
724 727 730 732 733 735 739 744 747 751 755 759 760 765 768 769 774 778 784 790 795 799 803 805 808 813 817 822 826 830 834 839 843 847 850 852 854 857 859 861 864 866 868
720 723 724 726 728 729 733 737 740 743 747 751 754 758 761 764 768 771 776 783 790 793 795 794 799 804 809 813 818 823 828 833 838 841 846 849 851 853 855 858 860 862 865
718 719 720 721 722 723 725 729 734 736 739 743 746 750 754 758 762 767 770 774 777 786 788 790 790 796 801 805 811 817 821 826 831 835 839 843 846 849 852 855 856 859 861
715 715 716 716 717 718 720 722 726 729 733 736 739 743 747 751 755 760 765 768 771 773 778 781 784 786 793 799 805 810 814 820 825 830 834 838 841 844 847 849 851 855 859
713 712 712 711 711 712 714 715 718 722 724 728 731 734 739 744 748 752 757 761 764 768 769 776 779 779 787 792 798 803 807 813 818 823 827 832 835 838 841 843 845 848 849
709 708 707 707 706 706 709 710 711 713 717 720 723 727 731 737 741 747 749 752 756 760 765 766 771 774 781 782 791 797 801 807 812 817 822 827 830 832 834 838 842 845 849
707 705 705 705 702 702 702 702 704 706 710 713 716 720 725 730 734 739 742 745 747 750 753 756 762 769 773 776 781 792 798 802 808 812 816 821 825 828 831 835 839 842 845
705 704 701 700 700 698 697 697 698 701 704 706 710 714 719 722 726 731 735 737 740 743 745 749 756 763 768 773 776 781 796 801 804 811 814 818 823 827 831 835 839 839 844
702 700 697 694 693 693 692 693 693 694 697 700 704 705 709 713 718 722 727 730 733 736 738 745 753 759 764 769 767 777 785 795 802 807 810 815 821 825 830 833 836 840 840
701 698 694 691 688 687 687 687 688 688 690 693 697 700 703 708 713 716 719 722 725 726 731 736 741 746 750 757 762 766 773 791 801 804 807 813 819 824 827 831 834 838 840
700 697 694 690 685 682 681 682 682 681 683 683 688 692 696 700 705 710 713 714 716 717 719 722 728 732 739 741 749 760 762 769 780 788 799 811 817 823 827 830 834 835 839
698 695 691 687 683 678 677 675 675 675 676 678 680 686 691 694 696 700 706 707 708 710 712 715 717 719 722 725 731 733 746 764 778 786 792 804 813 818 823 827 831 834 838
697 693 689 684 680 675 672 670 669 669 668 672 674 674 685 688 689 693 699 700 701 701 705 709 712 716 719 721 729 739 747 761 777 784 787 792 805 813 822 826 829 832 836
696 690 684 681 677 672 669 666 664 663 663 665 668 667 678 678 681 686 691 693 694 696 699 703 708 712 718 723 726 726 726 743 757 777 780 785 795 804 820 824 826 831 835